{"data":{"norad_id":44903,"intl_designator":"2019-095A","name":"ELEKTRO-L 3","alt_names":[],"object_type":"PAYLOAD","status":"ACTIVE","operator":null,"country":"CIS","launch_date":"2019-12-24","launch_site_code":"TYMSC","launch_vehicle":null,"mission":null,"orbit_class":"UNKNOWN","rcs_meters":null,"size_class":null,"mass_kg":null,"dimensions":null,"purposes":["comms","earth_obs"],"wikipedia_slug":null,"has_3d_model":false,"image_url":null,"decayed_at":null,"tle_current":{"epoch":"2026-09-20T03:29:19.152384Z","epoch_age_seconds":44901,"freshness":"FRESH","line1":"1 44903U 19095A   26263.14536056  .00000112  00000+0  00000+0 0  9995","line2":"2 44903   0.4947  82.3521 0003147  73.3262 309.0570  0.99407031 24660","mean_motion":0.99407031,"eccentricity":0.0003147,"inclination_deg":0.4947,"raan_deg":82.3521,"arg_perigee_deg":73.3262,"mean_anomaly_deg":309.057,"bstar":0,"rev_number":2466,"period_min":1448.5896877858,"perigee_km":36017.426503203,"apogee_km":36044.118670897,"semimajor_km":42408.90958705,"source":"CELESTRAK","updated_at":"2026-09-20T09:00:35.291518Z"}}}